[[{"header":{"parameterUnit":"m.s-1","parameterCategory":2,"la1":30.2991,"la2":30.254,"lo1":-89.0895,"lo2":-89.0444,"dy":0.0017,"dx":0.0017,"nx":28,"ny":28,"refTime":"2025-04-30T09:00:00:Z","depth":"0","parameterNumber":2,"parameterNumberName":"U-component_of_CURRENTS"},"data":[0,0,0,0,0,0,0,0,0,0,0,0,0,0,0,0,0,0,0,0,0,0,0,0,0,0,0,0,0,0,0,0,0,0,0,0,0,0,0,0,0,0,0,0,0,0,0,0,0,0,0,0,0,0,0,0,0,0,0.2768,0.2767,0,0.2745,0.2745,0.2744,0.2716,0.2716,0.2715,0.2715,0.2667,0.2666,0.2665,0,0,0,0,0,0,0,0,0,0,0,0,0,0.2792,0.2791,0.2768,0.2767,0.2767,0.2745,0.2745,0.2744,0.2716,0.2716,0.2715,0.2715,0.2668,0.2666,0.2665,0,0,0,0,0,0,0,0,0,0,0,0,0,0.2775,0.2791,0.2768,0.2752,0.275,0.2745,0.2745,0.2744,0.2716,0.2716,0.2715,0.2715,0.2668,0.2667,0.2665,0.2664,0,0,0.266,0.266,0,0,0,0,0,0,0,0,0.2776,0.2773,0.2754,0.2753,0.2751,0.2735,0.2736,0.2717,0.2716,0.2727,0.2715,0.2715,0.2689,0.2686,0.268,0.2662,0.266,0.266,0.2659,0.2659,0.2658,0,0,0,0,0,0,0,0.2777,0.2774,0.2757,0.2754,0.2753,0.2748,0.2745,0.2732,0.2709,0.2726,0.2724,0.2725,0.2688,0.2682,0.2679,0.2659,0.266,0.2659,0.2658,0.2657,0.2674,0.2676,0,0,0,0,0,0,0.2784,0.2775,0.2757,0.2756,0.2765,0.2748,0.2745,0.2739,0.2709,0.2705,0.2726,0.2724,0.2684,0.268,0.2677,0.27,0.2659,0.2657,0.2656,0.2673,0.2675,0.2676,0,0,0,0,0,0,0.2784,0.2782,0.2758,0.2767,0.2764,0.2749,0.2742,0.2739,0.2737,0.271,0.2704,0.2729,0.2684,0.2679,0.2677,0.2697,0.2657,0.2655,0.2671,0.2673,0.2675,0.2729,0,0,0,0,0,0,0.2785,0.2782,0.2782,0.2768,0.2764,0.2764,0.2743,0.2739,0.2739,0.2737,0.2711,0.2705,0.2683,0.268,0.2676,0.2694,0.2654,0.267,0.2672,0.2675,0.2725,0.2732,0.2738,0,0,0,0,0,0.2786,0.2788,0.2782,0.278,0.2764,0.2765,0.2763,0.2749,0.274,0.2745,0.273,0.2706,0.2693,0.268,0.2674,0.2692,0.2668,0.2671,0.2674,0.2722,0.2731,0.2738,0,0,0,0,0,0,0.2797,0.2786,0.2778,0.2777,0.2776,0.2761,0.2765,0.2756,0.2748,0.2746,0.2718,0.2712,0.2721,0.2702,0.2688,0.2708,0.2679,0.2682,0.2718,0.2726,0.2732,0.2746,0.2653,0,0,0,0,0,0.2801,0.28,0.2791,0.2791,0.2793,0.2781,0.278,0.2773,0.2764,0.276,0.274,0.2728,0.273,0.2724,0.2717,0.2722,0.2726,0.2733,0.274,0.2746,0.2756,0.2797,0.2809,0.2686,0.2686,0.2686,0,0,0.2804,0.28,0.2798,0.2794,0.279,0.2796,0.2779,0.2784,0.2789,0.2756,0.2755,0.2749,0.2738,0.2748,0.275,0.2732,0.2781,0.2749,0.2754,0.2761,0.2802,0.2814,0.2825,0.2688,0.2688,0.2687,0,0,0.2813,0.2809,0.2811,0.2814,0.2816,0.2813,0.2819,0.2809,0.2807,0.2811,0.2796,0.2807,0.2791,0.2793,0.2793,0.2834,0.2818,0.283,0.2868,0.2908,0.2919,0.2928,0.2939,0.2949,0.2829,0.2829,0.2829,0,0.2818,0.2814,0.2814,0.2821,0.2826,0.2824,0.2833,0.2835,0.2825,0.284,0.2819,0.2836,0.2818,0.285,0.2861,0.2849,0.2861,0.2836,0.2918,0.2927,0.2936,0.2945,0.2955,0.2832,0.2832,0.2831,0.2831,0,0.2825,0.2826,0.2832,0.2837,0.285,0.2856,0.2865,0.2877,0.2878,0.2886,0.2918,0.2902,0.2915,0.2913,0.2895,0.295,0.2934,0.2925,0.2897,0.2951,0.2957,0.2967,0.2836,0.2835,0.2834,0.2833,0,0,0.2814,0.2831,0.2831,0.2833,0.2857,0.2861,0.2896,0.2926,0.295,0.2958,0.2991,0.3003,0.3005,0.3006,0.299,0.3017,0.3075,0.2996,0.2997,0.3006,0.3152,0.3086,0.309,0.3085,0.3087,0.3089,0.3127,0,0.2813,0.2825,0.284,0.2853,0.2859,0.2886,0.2913,0.2949,0.2978,0.301,0.3035,0.3053,0.3037,0.3038,0.3073,0.3077,0.3106,0.3065,0.3099,0.31,0.3034,0.3101,0.2945,0.2963,0.3137,0.3138,0.3139,0,0.2801,0.2814,0.2827,0.2855,0.2861,0.2874,0.2929,0.2956,0.3027,0.3055,0.3109,0.3117,0.3163,0.313,0.3195,0.3172,0.3171,0.3171,0.3173,0.3101,0.3053,0.2939,0.2974,0.2883,0.3154,0.3153,0.3152,0,0.2772,0.2797,0.2805,0.2812,0.2851,0.287,0.2899,0.2972,0.3009,0.3085,0.3118,0.3184,0.3202,0.324,0.3245,0.3227,0.3307,0.3278,0.3221,0.3215,0.3084,0.3063,0.3033,0.3331,0.3331,0.3331,0.3331,0,0.275,0.2751,0.2786,0.2785,0.2804,0.2847,0.2887,0.2935,0.3017,0.3059,0.313,0.3166,0.3234,0.3278,0.3281,0.3287,0.3343,0.3245,0.3234,0.3096,0.3076,0.299,0.2967,0.3332,0.3332,0.3332,0.3332,0,0.2703,0.2725,0.273,0.2771,0.2783,0.2797,0.2868,0.2897,0.2987,0.3044,0.3066,0.3177,0.3235,0.3285,0.3341,0.3318,0.3225,0.3314,0.3134,0.3101,0.294,0.2925,0.2793,0.2706,0.3255,0.3254,0.3253,0,0.2676,0.2674,0.2706,0.2706,0.2717,0.2752,0.2772,0.287,0.2908,0.3033,0.3048,0.3143,0.3185,0.3264,0.3246,0.3254,0.3171,0.3106,0.3043,0.2926,0.2902,0.279,0.2719,0.2885,0.2881,0.2878,0.2875,0,0.2628,0.2637,0.2644,0.2646,0.2654,0.267,0.271,0.274,0.2842,0.2896,0.297,0.3022,0.3105,0.3063,0.3087,0.3066,0.2931,0.3038,0.2971,0.2662,0.2485,0.2396,0.2854,0.2846,0.2849,0.2851,0.2853,0.2854,0.2588,0.2576,0.258,0.2568,0.2575,0.2558,0.254,0.2592,0.2631,0.2671,0.2813,0.2829,0.2874,0.2889,0.2861,0.2702,0.2727,0.2595,0.2603,0.2511,0.2374,0.2761,0.2709,0.2711,0.2713,0.2714,0.2716,0,0.2521,0.2509,0.2499,0.2466,0.2422,0.2462,0.2465,0.2426,0.2411,0.249,0.254,0.254,0.2492,0.2506,0.2401,0.2285,0.2169,0.2212,0.2022,0.199,0.2377,0.2307,0.21,0.21,0.21,0.21,0.21,0.21,0.2486,0.244,0.2422,0.2315,0.2288,0.2192,0.2167,0.2133,0.2154,0.2122,0.2112,0.2173,0.2247,0.2177,0.2021,0.1961,0.1811,0.1697,0.1735,0.2017,0.2053,0.2087,0.2015,0.175,0.1749,0.1216,0.1213,0.121]},{"header":{"parameterUnit":"m.s-1","parameterCategory":2,"la1":30.2991,"la2":30.254,"lo1":-89.0895,"lo2":-89.0444,"dy":0.0017,"dx":0.0017,"nx":28,"ny":28,"refTime":"2025-04-30T09:00:00:Z","depth":"0","parameterNumber":3,"parameterNumberName":"V-component_of_CURRENTS"},"data":[0,0,0,0,0,0,0,0,0,0,0,0,0,0,0,0,0,0,0,0,0,0,0,0,0,0,0,0,0,0,0,0,0,0,0,0,0,0,0,0,0,0,0,0,0,0,0,0,0,0,0,0,0,0,0,0,0,0,0.0399,0.0399,0,0.0387,0.0387,0.0387,0.0372,0.0371,0.0371,0.0371,0.0337,0.0336,0.0336,0,0,0,0,0,0,0,0,0,0,0,0,0,0.037,0.037,0.0399,0.0399,0.0399,0.0387,0.0387,0.0387,0.0372,0.0371,0.0371,0.0371,0.0337,0.0336,0.0335,0,0,0,0,0,0,0,0,0,0,0,0,0,0.0372,0.0371,0.0399,0.0391,0.039,0.0387,0.0387,0.0387,0.0372,0.0371,0.0371,0.0371,0.0338,0.0336,0.0335,0.0333,0,0,0.0332,0.0331,0,0,0,0,0,0,0,0,0.0372,0.0373,0.0392,0.0392,0.0391,0.0381,0.0364,0.0368,0.0372,0.0378,0.0371,0.0371,0.0351,0.0348,0.0346,0.0331,0.033,0.0332,0.0331,0.0331,0.033,0,0,0,0,0,0,0,0.0372,0.0373,0.0394,0.0392,0.0391,0.0374,0.0374,0.0364,0.0365,0.0377,0.0376,0.0376,0.035,0.0347,0.0345,0.0329,0.0332,0.0331,0.033,0.033,0.0311,0.0311,0,0,0,0,0,0,0.0377,0.0373,0.0394,0.0393,0.0381,0.0375,0.0375,0.0384,0.0365,0.0362,0.0377,0.0376,0.0349,0.0346,0.0343,0.0354,0.0331,0.033,0.0329,0.0311,0.0311,0.0311,0,0,0,0,0,0,0.0377,0.038,0.0395,0.0383,0.0384,0.0376,0.0386,0.0384,0.0384,0.0365,0.0362,0.038,0.0349,0.0345,0.0341,0.0352,0.0329,0.0328,0.0311,0.0311,0.0311,0.0365,0,0,0,0,0,0,0.0376,0.038,0.0386,0.0384,0.0385,0.0401,0.0386,0.0384,0.0385,0.0384,0.0367,0.0363,0.0348,0.0343,0.034,0.035,0.0327,0.031,0.0311,0.0311,0.0363,0.0367,0.037,0,0,0,0,0,0.0375,0.039,0.0386,0.0389,0.0394,0.0402,0.0401,0.0393,0.0386,0.0391,0.0378,0.0364,0.0343,0.0342,0.0339,0.0348,0.031,0.0311,0.0311,0.0361,0.0366,0.037,0,0,0,0,0,0,0.0378,0.0389,0.0386,0.0402,0.0404,0.04,0.0404,0.0398,0.0392,0.039,0.0369,0.0365,0.0363,0.0347,0.0348,0.0342,0.0323,0.0322,0.0362,0.0366,0.037,0.0389,0.0326,0,0,0,0,0,0.0383,0.0397,0.04,0.0412,0.0416,0.041,0.0411,0.0407,0.0402,0.04,0.0386,0.0371,0.0361,0.0358,0.0344,0.0346,0.0327,0.0347,0.0351,0.0355,0.0367,0.0344,0.0347,0.0313,0.0313,0.0313,0,0,0.0386,0.0394,0.0401,0.0414,0.0414,0.0429,0.041,0.0418,0.043,0.0397,0.0405,0.0383,0.0363,0.0364,0.0361,0.0354,0.0353,0.0355,0.0359,0.0369,0.0345,0.0348,0.0351,0.0313,0.0313,0.0313,0,0,0.0406,0.041,0.043,0.0437,0.0444,0.0442,0.0447,0.0446,0.0446,0.0451,0.0428,0.0415,0.0402,0.0391,0.0383,0.04,0.0371,0.0391,0.0431,0.0409,0.0412,0.0414,0.0391,0.0391,0.0397,0.0397,0.0397,0,0.0409,0.0439,0.0435,0.0458,0.0471,0.0453,0.0479,0.0476,0.0472,0.0482,0.0461,0.0441,0.0417,0.0425,0.0427,0.041,0.0392,0.0418,0.0415,0.0417,0.0419,0.0394,0.0394,0.0399,0.0399,0.0399,0.0399,0,0.0449,0.047,0.0483,0.0508,0.0519,0.0537,0.0538,0.0545,0.0537,0.0536,0.0538,0.0501,0.0493,0.0477,0.0457,0.046,0.0441,0.042,0.0407,0.0426,0.0398,0.0397,0.0403,0.0402,0.0401,0.0401,0,0,0.0466,0.0505,0.051,0.0538,0.0551,0.057,0.0589,0.0612,0.0642,0.0612,0.0641,0.0603,0.0579,0.0568,0.0533,0.0512,0.0496,0.0476,0.0474,0.046,0.0448,0.0431,0.0427,0.0475,0.0476,0.0476,0.0424,0,0.05,0.0559,0.0565,0.0618,0.0652,0.0649,0.0676,0.0691,0.0696,0.0715,0.0671,0.0676,0.0616,0.0611,0.0579,0.0524,0.0495,0.0512,0.0426,0.0424,0.0413,0.0426,0.0457,0.0414,0.0422,0.0422,0.0421,0,0.054,0.0579,0.0639,0.0697,0.0712,0.0734,0.0789,0.0814,0.0829,0.0834,0.082,0.078,0.0745,0.0685,0.0597,0.0612,0.0535,0.0482,0.0478,0.0446,0.0405,0.0396,0.041,0.0342,0.0418,0.0418,0.0419,0,0.0573,0.0633,0.0687,0.0706,0.076,0.0789,0.0818,0.0851,0.0898,0.0907,0.0928,0.0874,0.0854,0.0754,0.0629,0.0615,0.0529,0.0493,0.0404,0.0401,0.0404,0.0402,0.035,0.0424,0.0424,0.0425,0.0425,0,0.0615,0.0659,0.0709,0.0742,0.0819,0.0839,0.0921,0.0944,0.0992,0.1052,0.0989,0.1012,0.087,0.0796,0.0668,0.0538,0.0553,0.0418,0.0391,0.0422,0.0422,0.0343,0.0296,0.0423,0.0423,0.0423,0.0424,0,0.0644,0.0672,0.0745,0.0811,0.0837,0.0895,0.099,0.1055,0.1083,0.1154,0.1155,0.1123,0.1033,0.0879,0.0727,0.0601,0.0423,0.0413,0.0458,0.0437,0.0289,0.0244,0.0146,0.0099,0.0312,0.0312,0.0311,0,0.0666,0.0705,0.0795,0.0846,0.0877,0.0965,0.1032,0.1096,0.1171,0.1225,0.1264,0.1201,0.118,0.0957,0.0733,0.0517,0.0413,0.0386,0.0358,0.0294,0.0224,0.0185,0.015,0.0378,0.0378,0.0378,0.0378,0,0.0711,0.0737,0.0797,0.0899,0.0975,0.1075,0.1171,0.1246,0.132,0.138,0.1444,0.1431,0.1228,0.1051,0.0751,0.0585,0.0349,0.0379,0.0305,0.0269,0.0232,0.017,0.0394,0.0378,0.0378,0.0378,0.0378,0.0378,0.074,0.0787,0.0862,0.0958,0.1051,0.1166,0.1252,0.1363,0.1486,0.1584,0.1576,0.1587,0.1334,0.095,0.0723,0.0361,0.034,0.0259,0.0208,0.0174,0.0136,0.0359,0.0315,0.0315,0.0314,0.0314,0.0314,0,0.0775,0.0827,0.0917,0.103,0.113,0.1176,0.1333,0.1425,0.1568,0.1672,0.1734,0.1635,0.1327,0.0976,0.0503,0.0257,0.0148,0.012,0.0084,0.0052,0.0253,0.0265,0.0219,0.0219,0.0219,0.022,0.022,0.022,0.0794,0.0872,0.0915,0.1066,0.1149,0.1281,0.137,0.1515,0.163,0.1765,0.18,0.1814,0.1582,0.0774,0.0261,0.0129,-0.0033,-0.0076,-0.0172,-0.0013,-0.0003,0.0006,0.0008,-0.0091,-0.0092,-0.0332,-0.0334,-0.0336]}],[{"header":{"parameterUnit":"m.s-1","parameterCategory":2,"la1":30.2991,"la2":30.254,"lo1":-89.0895,"lo2":-89.0444,"dy":0.0017,"dx":0.0017,"nx":28,"ny":28,"refTime":"2025-04-30T09:00:00:Z","depth":"2","parameterNumber":2,"parameterNumberName":"U-component_of_CURRENTS"},"data":[0,0,0,0,0,0,0,0,0,0,0,0,0,0,0,0,0,0,0,0,0,0,0,0,0,0,0,0,0,0,0,0,0,0,0,0,0,0,0,0,0,0,0,0,0,0,0,0,0,0,0,0,0,0,0,0,0,0,0.2469,0.2469,0,0.2461,0.2461,0.2461,0.2451,0.2451,0.2451,0.2451,0.2431,0.2431,0.243,0,0,0,0,0,0,0,0,0,0,0,0,0,0.2487,0.2486,0.2469,0.2469,0.2469,0.2461,0.2461,0.2461,0.2451,0.2451,0.2451,0.2451,0.2431,0.2431,0.243,0,0,0,0,0,0,0,0,0,0,0,0,0,0.2477,0.2486,0.2469,0.2465,0.2464,0.2462,0.2461,0.2461,0.2451,0.2451,0.2451,0.2451,0.2432,0.2431,0.243,0.2425,0,0,0.2428,0.2427,0,0,0,0,0,0,0,0,0.2478,0.2477,0.2465,0.2465,0.2465,0.2459,0.246,0.2449,0.2451,0.2455,0.2451,0.2451,0.244,0.2439,0.2435,0.2425,0.2424,0.2427,0.2427,0.2427,0.2426,0,0,0,0,0,0,0,0.2479,0.2477,0.2465,0.2466,0.2465,0.2467,0.2465,0.2458,0.2446,0.2454,0.2454,0.2456,0.244,0.2436,0.2435,0.2423,0.2428,0.2427,0.2426,0.2426,0.246,0.2461,0,0,0,0,0,0,0.2482,0.2477,0.2465,0.2465,0.2473,0.2467,0.2465,0.2459,0.2447,0.2445,0.2456,0.2455,0.2437,0.2436,0.2434,0.2469,0.2427,0.2426,0.2425,0.2458,0.246,0.2461,0,0,0,0,0,0,0.2482,0.2481,0.2465,0.2473,0.2471,0.2466,0.246,0.2459,0.2467,0.2448,0.2446,0.2466,0.2437,0.2435,0.2443,0.2466,0.2426,0.2425,0.2457,0.2459,0.2461,0.2512,0,0,0,0,0,0,0.2483,0.2481,0.2484,0.2473,0.2471,0.2475,0.2461,0.2459,0.2468,0.2468,0.2456,0.2454,0.2437,0.2445,0.2443,0.2464,0.2424,0.2455,0.2458,0.246,0.2509,0.2516,0.2522,0,0,0,0,0,0.2483,0.2486,0.2484,0.2483,0.2473,0.2475,0.2475,0.247,0.2469,0.2477,0.2473,0.2455,0.246,0.2445,0.2442,0.2464,0.2454,0.2457,0.246,0.2506,0.2514,0.2521,0,0,0,0,0,0,0.2494,0.2485,0.2482,0.2482,0.2485,0.2475,0.2482,0.248,0.2483,0.2485,0.2466,0.2464,0.2483,0.2468,0.2453,0.2484,0.2456,0.2459,0.2492,0.25,0.2506,0.2517,0.2424,0,0,0,0,0,0.2499,0.2498,0.2493,0.2495,0.2498,0.2494,0.2497,0.2496,0.2494,0.2495,0.2486,0.2484,0.2492,0.2491,0.2491,0.2502,0.2505,0.2518,0.2524,0.253,0.2538,0.2576,0.2587,0.2472,0.2472,0.2471,0,0,0.2503,0.2499,0.2499,0.2498,0.2499,0.2506,0.2495,0.2506,0.2515,0.2493,0.2504,0.2506,0.2501,0.2518,0.2525,0.2509,0.2563,0.2534,0.2538,0.2544,0.258,0.2592,0.2602,0.2474,0.2473,0.2473,0,0,0.2511,0.251,0.2513,0.2518,0.2526,0.2525,0.2533,0.2532,0.2537,0.2551,0.2543,0.2562,0.256,0.2565,0.2568,0.2611,0.2599,0.2612,0.2648,0.2685,0.2695,0.2704,0.2714,0.2723,0.2612,0.2612,0.2612,0,0.2519,0.2515,0.2517,0.2524,0.2532,0.2537,0.2547,0.2554,0.2556,0.2575,0.2563,0.2596,0.2585,0.2621,0.2634,0.2625,0.2637,0.2616,0.2694,0.2703,0.2711,0.2719,0.2729,0.2615,0.2615,0.2614,0.2614,0,0.2523,0.2528,0.2533,0.2541,0.2555,0.2565,0.2577,0.2596,0.2607,0.262,0.2663,0.2657,0.268,0.2681,0.2668,0.2723,0.2709,0.27,0.2673,0.2725,0.2731,0.274,0.2619,0.2618,0.2617,0.2616,0,0,0.2515,0.2531,0.2533,0.2538,0.2564,0.257,0.2607,0.264,0.2669,0.2689,0.2729,0.2751,0.2763,0.2767,0.2758,0.2784,0.284,0.2768,0.2768,0.2776,0.2912,0.2841,0.2843,0.285,0.2852,0.2854,0.289,0,0.2516,0.2526,0.2541,0.2558,0.2564,0.2595,0.2624,0.2664,0.27,0.2739,0.277,0.28,0.2791,0.2802,0.2834,0.2841,0.2868,0.283,0.2862,0.2863,0.2792,0.2853,0.2609,0.2616,0.2898,0.29,0.2901,0,0.2505,0.2516,0.2531,0.256,0.2568,0.2586,0.2645,0.2675,0.275,0.2784,0.2845,0.2861,0.2912,0.2885,0.2949,0.2929,0.293,0.293,0.2931,0.2854,0.2809,0.2612,0.2621,0.2916,0.2914,0.2913,0.2912,0,0.2478,0.2504,0.2514,0.2523,0.2562,0.2588,0.262,0.2695,0.2735,0.2818,0.2857,0.2925,0.2953,0.2988,0.2998,0.2982,0.3055,0.3028,0.2966,0.296,0.2752,0.2724,0.3077,0.3077,0.3077,0.3076,0.3076,0,0.2457,0.2463,0.2501,0.2502,0.2527,0.2571,0.2619,0.267,0.2754,0.28,0.2875,0.2914,0.2984,0.3027,0.3029,0.3031,0.3088,0.2987,0.2975,0.2762,0.2736,0.2994,0.2983,0.3078,0.3077,0.3077,0.3077,0,0.2415,0.2438,0.2448,0.2493,0.251,0.2531,0.261,0.2642,0.2735,0.2797,0.2824,0.2931,0.2986,0.3036,0.3087,0.306,0.3067,0.3049,0.2783,0.2741,0.2936,0.2928,0.2985,0.2983,0.2981,0.298,0.2979,0,0.239,0.2391,0.2432,0.2437,0.2455,0.2499,0.2524,0.2622,0.2662,0.2788,0.2803,0.2899,0.2935,0.3,0.2972,0.2972,0.304,0.2737,0.2662,0.2949,0.2932,0.2927,0.2922,0.24,0.2395,0.239,0.2386,0,0.2346,0.2363,0.2373,0.2386,0.2404,0.2425,0.2473,0.25,0.2603,0.2657,0.2723,0.2769,0.2837,0.2733,0.2747,0.2711,0.272,0.264,0.302,0.2467,0.2402,0.2385,0.2398,0.2344,0.2348,0.2351,0.2353,0.2355,0.2314,0.2307,0.2319,0.232,0.2335,0.2325,0.2311,0.2361,0.2397,0.2434,0.2557,0.2538,0.2567,0.2466,0.2382,0.2311,0.2506,0.2377,0.2389,0.2407,0.234,0.2276,0.2179,0.2182,0.2185,0.2187,0.219,0,0.2255,0.2249,0.2248,0.2227,0.2193,0.2242,0.2246,0.2204,0.2185,0.2243,0.2279,0.2095,0.2021,0.2046,0.1872,0.1868,0.183,0.1784,0.1708,0.1753,0.1792,0.169,0.1359,0.1356,0.1354,0.1351,0,0,0.2224,0.2187,0.2173,0.2085,0.2073,0.1995,0.1975,0.193,0.1931,0.1872,0.1835,0.1966,0.201,0.1672,0.1619,0.1457,0.1594,0.1395,0.2066,0.2025,0.206,0.2144,0.204,0,0,0,0,0]},{"header":{"parameterUnit":"m.s-1","parameterCategory":2,"la1":30.2991,"la2":30.254,"lo1":-89.0895,"lo2":-89.0444,"dy":0.0017,"dx":0.0017,"nx":28,"ny":28,"refTime":"2025-04-30T09:00:00:Z","depth":"2","parameterNumber":3,"parameterNumberName":"V-component_of_CURRENTS"},"data":[0,0,0,0,0,0,0,0,0,0,0,0,0,0,0,0,0,0,0,0,0,0,0,0,0,0,0,0,0,0,0,0,0,0,0,0,0,0,0,0,0,0,0,0,0,0,0,0,0,0,0,0,0,0,0,0,0,0,0.0253,0.0253,0,0.0242,0.0242,0.0242,0.0232,0.0232,0.0232,0.0232,0.0203,0.0203,0.0202,0,0,0,0,0,0,0,0,0,0,0,0,0,0.0228,0.0228,0.0253,0.0253,0.0253,0.0242,0.0242,0.0242,0.0232,0.0232,0.0232,0.0232,0.0204,0.0203,0.0202,0,0,0,0,0,0,0,0,0,0,0,0,0,0.0229,0.0229,0.0253,0.0247,0.0247,0.0242,0.0242,0.0242,0.0232,0.0232,0.0232,0.0232,0.0204,0.0203,0.0202,0.0197,0,0,0.0199,0.0198,0,0,0,0,0,0,0,0,0.0229,0.023,0.0248,0.0248,0.0247,0.0239,0.0223,0.0226,0.0232,0.0237,0.0232,0.0232,0.0214,0.0212,0.021,0.0195,0.0194,0.0199,0.0198,0.0197,0.0197,0,0,0,0,0,0,0,0.0229,0.023,0.0248,0.0248,0.0248,0.0232,0.0233,0.0223,0.0225,0.0236,0.0236,0.0236,0.0214,0.0211,0.0209,0.0194,0.0199,0.0198,0.0197,0.0197,0.018,0.018,0,0,0,0,0,0,0.0234,0.0231,0.0248,0.0248,0.0239,0.0233,0.0234,0.0241,0.0226,0.0223,0.0236,0.0235,0.0213,0.021,0.0208,0.0219,0.0197,0.0196,0.0196,0.0179,0.018,0.018,0,0,0,0,0,0,0.0234,0.0236,0.0249,0.0239,0.024,0.0234,0.0242,0.0241,0.0243,0.0226,0.0223,0.024,0.0212,0.0209,0.0206,0.0217,0.0196,0.0195,0.0179,0.018,0.018,0.023,0,0,0,0,0,0,0.0233,0.0237,0.0242,0.024,0.024,0.0254,0.0242,0.0241,0.0243,0.0242,0.0228,0.0225,0.0212,0.0208,0.0205,0.0215,0.0194,0.0179,0.0179,0.018,0.0228,0.0231,0.0235,0,0,0,0,0,0.0233,0.0245,0.0243,0.0244,0.0249,0.0255,0.0254,0.0249,0.0244,0.0249,0.0239,0.0226,0.0208,0.0208,0.0204,0.0214,0.0179,0.0179,0.018,0.0226,0.0231,0.0235,0,0,0,0,0,0,0.0235,0.0245,0.0242,0.0256,0.0258,0.0254,0.0258,0.0254,0.0249,0.0248,0.0231,0.0227,0.0227,0.0212,0.0212,0.0209,0.019,0.019,0.0227,0.0231,0.0234,0.0251,0.0193,0,0,0,0,0,0.0239,0.0251,0.0254,0.0265,0.0268,0.0263,0.0264,0.0262,0.0258,0.0257,0.0246,0.0233,0.0225,0.0222,0.021,0.0212,0.0191,0.0214,0.0217,0.0221,0.0231,0.0205,0.0208,0.0181,0.0181,0.0181,0,0,0.0242,0.0249,0.0255,0.0266,0.0266,0.028,0.0264,0.0271,0.0283,0.0254,0.0263,0.0245,0.0227,0.0228,0.0226,0.0219,0.0216,0.0221,0.0224,0.0233,0.0206,0.0209,0.0211,0.0182,0.0182,0.0182,0,0,0.0259,0.0262,0.028,0.0287,0.0294,0.0292,0.0297,0.0297,0.0299,0.0304,0.0284,0.0274,0.0263,0.0253,0.0246,0.0261,0.0234,0.0255,0.0291,0.0266,0.0269,0.027,0.0245,0.0244,0.026,0.026,0.026,0,0.0262,0.0288,0.0285,0.0305,0.0316,0.0302,0.0326,0.0324,0.0322,0.0331,0.0314,0.0297,0.0276,0.0282,0.0286,0.0271,0.0252,0.0279,0.0272,0.0273,0.0274,0.0248,0.0246,0.0263,0.0262,0.0262,0.0262,0,0.0296,0.0315,0.0326,0.035,0.0359,0.0376,0.0378,0.0385,0.0381,0.038,0.0382,0.035,0.0343,0.0329,0.0314,0.0314,0.0296,0.0278,0.0264,0.028,0.0251,0.0248,0.0266,0.0265,0.0265,0.0264,0,0,0.0311,0.0345,0.035,0.0375,0.0388,0.0405,0.0423,0.0444,0.047,0.0446,0.047,0.0439,0.0419,0.0409,0.038,0.0357,0.0339,0.0326,0.0324,0.0307,0.0286,0.0271,0.0266,0.032,0.032,0.032,0.0262,0,0.0341,0.0393,0.0398,0.0447,0.0477,0.0475,0.05,0.0514,0.0518,0.0533,0.0494,0.0499,0.0451,0.0449,0.0417,0.0364,0.0335,0.0356,0.0268,0.0266,0.0255,0.0264,0.0282,0.0233,0.026,0.0259,0.0259,0,0.0376,0.0411,0.0465,0.0515,0.0529,0.055,0.0599,0.0622,0.0632,0.0636,0.0623,0.059,0.0557,0.0507,0.0422,0.0439,0.0369,0.0317,0.0313,0.0283,0.0246,0.0221,0.0227,0.0254,0.0254,0.0255,0.0255,0,0.0406,0.0459,0.0508,0.0524,0.0573,0.0599,0.0626,0.0655,0.0696,0.0702,0.0719,0.0668,0.0651,0.0557,0.0446,0.0436,0.0344,0.0314,0.0231,0.0229,0.022,0.0217,0.0246,0.0247,0.0247,0.0247,0.0247,0,0.0443,0.0483,0.0528,0.0558,0.0627,0.0645,0.0718,0.0738,0.0778,0.0831,0.0775,0.0794,0.0664,0.0592,0.0475,0.0352,0.0363,0.0243,0.0216,0.0237,0.0237,0.0235,0.0235,0.0245,0.0245,0.0246,0.0246,0,0.047,0.0495,0.056,0.0619,0.0644,0.0697,0.0783,0.084,0.0864,0.0926,0.0928,0.0895,0.0809,0.0666,0.052,0.0404,0.0277,0.0225,0.0258,0.0237,0.0168,0.0171,0.0131,0.013,0.0129,0.0128,0.0128,0,0.0489,0.0525,0.0607,0.0654,0.0684,0.0764,0.0826,0.0881,0.0947,0.099,0.1024,0.0964,0.0939,0.0722,0.0519,0.0317,0.0279,0.0182,0.0161,0.018,0.0158,0.0162,0.0165,0.0164,0.0163,0.0163,0.0163,0,0.0529,0.0554,0.0609,0.0706,0.0777,0.0867,0.0955,0.102,0.1083,0.1133,0.1184,0.1165,0.0974,0.0792,0.0514,0.0367,0.0216,0.0172,0.0185,0.0193,0.0207,0.0186,0.019,0.0161,0.0162,0.0162,0.0162,0.0162,0.0556,0.06,0.067,0.0761,0.0849,0.0954,0.1031,0.1128,0.1233,0.131,0.1296,0.1268,0.1058,0.0717,0.0475,0.0212,0.0227,0.0117,0.0119,0.0121,0.0138,0.015,0.0097,0.0097,0.0096,0.0096,0.0096,0,0.0591,0.0639,0.0723,0.0828,0.0922,0.0968,0.1108,0.1184,0.1305,0.1376,0.1421,0.1203,0.1003,0.0744,0.0372,0.015,0.0127,0.0057,0.0086,0.009,0.0093,0.011,0.006,0.0059,0.0058,0.0058,0,0,0.0609,0.0682,0.072,0.0863,0.0943,0.1068,0.1148,0.1265,0.1348,0.1417,0.1409,0.139,0.1082,0.08,0.0504,0.0286,0.0232,0.0229,0.0284,0.0359,0.0364,0.0154,0.0188,0,0,0,0,0]}],[{"header":{"parameterUnit":"m.s-1","parameterCategory":2,"la1":30.2991,"la2":30.254,"lo1":-89.0895,"lo2":-89.0444,"dy":0.0017,"dx":0.0017,"nx":28,"ny":28,"refTime":"2025-04-30T09:00:00:Z","depth":"4","parameterNumber":2,"parameterNumberName":"U-component_of_CURRENTS"},"data":[0,0,0,0,0,0,0,0,0,0,0,0,0,0,0,0,0,0,0,0,0,0,0,0,0,0,0,0,0,0,0,0,0,0,0,0,0,0,0,0,0,0,0,0,0,0,0,0,0,0,0,0,0,0,0,0,0,0,0.1563,0.1563,0,0.1602,0.1603,0.1603,0.1649,0.165,0.165,0.1651,0.1709,0.171,0.1711,0,0,0,0,0,0,0,0,0,0,0,0,0,0.1534,0.1534,0.1563,0.1563,0.1564,0.1602,0.1603,0.1603,0.1649,0.165,0.1651,0.1652,0.1709,0.171,0.1711,0,0,0,0,0,0,0,0,0,0,0,0,0,0.1556,0.1534,0.1563,0.1592,0.1595,0.1602,0.1603,0.1603,0.1648,0.165,0.1651,0.1652,0.1708,0.171,0.1711,0.1694,0,0,0.1714,0.1715,0,0,0,0,0,0,0,0,0.1555,0.1557,0.1587,0.159,0.1594,0.1623,0.1614,0.1635,0.1648,0.1627,0.1651,0.1653,0.1682,0.1685,0.1688,0.1697,0.1699,0.1715,0.1715,0.1716,0.1716,0,0,0,0,0,0,0,0.1553,0.1556,0.1577,0.1588,0.1592,0.1606,0.161,0.1618,0.1647,0.1629,0.1633,0.1639,0.1684,0.1687,0.169,0.17,0.1715,0.1716,0.1716,0.1717,0.1808,0.181,0,0,0,0,0,0,0.1549,0.1554,0.1576,0.1579,0.1578,0.1606,0.161,0.1611,0.1646,0.1653,0.1638,0.1641,0.1684,0.1688,0.1692,0.1769,0.1716,0.1717,0.1718,0.1806,0.1808,0.181,0,0,0,0,0,0,0.1548,0.155,0.1574,0.1568,0.1573,0.1605,0.1606,0.1612,0.1651,0.1653,0.166,0.1675,0.1685,0.169,0.1733,0.1768,0.1717,0.1719,0.1804,0.1807,0.1809,0.1862,0,0,0,0,0,0,0.1547,0.1549,0.1567,0.1568,0.1573,0.1601,0.1605,0.1611,0.1651,0.1656,0.1686,0.1691,0.1687,0.1732,0.1735,0.1769,0.1719,0.1802,0.1805,0.1808,0.1858,0.1866,0.1873,0,0,0,0,0,0.1545,0.1557,0.1567,0.1571,0.159,0.1602,0.1606,0.1632,0.1652,0.1672,0.1698,0.1692,0.1754,0.1734,0.1737,0.1772,0.1801,0.1805,0.1808,0.1855,0.1864,0.1872,0,0,0,0,0,0,0.1556,0.1563,0.1574,0.159,0.1607,0.1611,0.1636,0.1651,0.1687,0.1705,0.1709,0.1715,0.1767,0.1763,0.174,0.1809,0.1778,0.1783,0.1813,0.1822,0.1829,0.1831,0.172,0,0,0,0,0,0.1565,0.1578,0.1586,0.1604,0.1614,0.1633,0.1649,0.1666,0.1688,0.1707,0.1727,0.1753,0.1778,0.1796,0.1813,0.1846,0.1846,0.1873,0.1881,0.1887,0.1892,0.1928,0.1939,0.1823,0.1823,0.1823,0,0,0.1575,0.1582,0.1592,0.1609,0.1626,0.1642,0.1647,0.168,0.1705,0.1706,0.1759,0.1781,0.1794,0.1835,0.1858,0.1841,0.1919,0.1892,0.1897,0.1898,0.1933,0.1944,0.1954,0.1825,0.1825,0.1824,0,0,0.1589,0.161,0.1622,0.1638,0.1668,0.1676,0.1693,0.1718,0.1746,0.179,0.1803,0.1848,0.1881,0.1897,0.1908,0.1967,0.1959,0.198,0.2017,0.2053,0.2062,0.2071,0.2078,0.2087,0.1982,0.1982,0.1982,0,0.1607,0.1615,0.1631,0.1646,0.1666,0.1694,0.1715,0.174,0.178,0.1812,0.182,0.1898,0.1909,0.196,0.1982,0.1983,0.1995,0.198,0.2061,0.207,0.2078,0.2084,0.2093,0.1985,0.1985,0.1984,0.1984,0,0.1613,0.1638,0.165,0.1675,0.1701,0.1726,0.1756,0.1798,0.184,0.1867,0.1944,0.1965,0.2014,0.2026,0.2022,0.2088,0.2075,0.2067,0.2036,0.2092,0.2095,0.2103,0.1989,0.1988,0.1987,0.1987,0,0,0.1605,0.1646,0.1655,0.1673,0.1721,0.1736,0.1793,0.1843,0.189,0.1946,0.2007,0.206,0.2091,0.2106,0.2115,0.2143,0.2202,0.2134,0.2134,0.2136,0.2272,0.2116,0.2109,0.2216,0.2218,0.2219,0.2249,0,0.161,0.1637,0.1663,0.1704,0.1719,0.1771,0.1815,0.1874,0.1934,0.1998,0.2051,0.2112,0.2115,0.2149,0.2184,0.2203,0.2229,0.2194,0.2222,0.2223,0.2072,0.2115,0.2226,0.2255,0.2257,0.2258,0.2259,0,0.1599,0.1621,0.1659,0.1713,0.1729,0.1766,0.1853,0.1899,0.1997,0.2049,0.2131,0.217,0.224,0.2225,0.2297,0.228,0.2286,0.2289,0.229,0.213,0.2081,0.219,0.2274,0.2273,0.2272,0.2271,0.227,0,0.1563,0.1616,0.1649,0.1667,0.1734,0.178,0.1831,0.1927,0.1981,0.2094,0.2147,0.2233,0.2286,0.2322,0.2344,0.2334,0.24,0.2381,0.2243,0.2231,0.234,0.233,0.2426,0.2426,0.2425,0.2425,0.2425,0,0.1532,0.1562,0.1641,0.1655,0.171,0.1771,0.185,0.1916,0.202,0.2078,0.2178,0.2224,0.2317,0.2363,0.2369,0.2328,0.2428,0.2251,0.2232,0.236,0.2353,0.2345,0.2335,0.2426,0.2426,0.2426,0.2426,0,0.1478,0.1529,0.1571,0.1658,0.1692,0.1738,0.1855,0.19,0.2014,0.2093,0.2133,0.2248,0.2298,0.2356,0.2407,0.234,0.2324,0.2284,0.2413,0.2401,0.2123,0.2116,0.2123,0.2118,0.2113,0.211,0.2106,0,0.1445,0.1464,0.1567,0.1598,0.1644,0.1725,0.1771,0.1891,0.1937,0.208,0.2096,0.2197,0.2252,0.2201,0.2274,0.2266,0.2241,0.221,0.2164,0.2113,0.2095,0.2095,0.2094,0.2099,0.2098,0.2097,0.2096,0,0.1386,0.1443,0.1481,0.1546,0.1604,0.1653,0.1731,0.175,0.187,0.1991,0.2007,0.2025,0.2071,0.21,0.2111,0.2104,0.2216,0.2164,0.2172,0.2129,0.2085,0.2071,0.2075,0.2081,0.2083,0.2084,0.2085,0,0.1354,0.1367,0.1429,0.1472,0.1539,0.1548,0.1603,0.1638,0.1696,0.1841,0.1842,0.1942,0.205,0.2016,0.2027,0.2007,0.197,0.1893,0.1915,0.1933,0.1855,0.177,0.1654,0,0,0,0,0,0.1308,0.1307,0.1343,0.1372,0.1431,0.1471,0.1553,0.1606,0.1718,0.168,0.1755,0.1784,0.1793,0.1852,0.1791,0.1941,0.1981,0.186,0.1905,0.1996,0.2014,0.1939,0,0,0,0,0,0,0.1273,0.1307,0.1308,0.128,0.1284,0.133,0.1379,0.1455,0.144,0.1563,0.1583,0.1674,0.172,0.1815,0.176,0.1774,0.1761,0.1928,0.1923,0.1986,0.2002,0.2016,0.1945,0,0,0,0,0]},{"header":{"parameterUnit":"m.s-1","parameterCategory":2,"la1":30.2991,"la2":30.254,"lo1":-89.0895,"lo2":-89.0444,"dy":0.0017,"dx":0.0017,"nx":28,"ny":28,"refTime":"2025-04-30T09:00:00:Z","depth":"4","parameterNumber":3,"parameterNumberName":"V-component_of_CURRENTS"},"data":[0,0,0,0,0,0,0,0,0,0,0,0,0,0,0,0,0,0,0,0,0,0,0,0,0,0,0,0,0,0,0,0,0,0,0,0,0,0,0,0,0,0,0,0,0,0,0,0,0,0,0,0,0,0,0,0,0,0,0.016,0.016,0,0.0155,0.0155,0.0155,0.0153,0.0153,0.0153,0.0153,0.0136,0.0136,0.0136,0,0,0,0,0,0,0,0,0,0,0,0,0,0.0141,0.0141,0.016,0.016,0.016,0.0155,0.0155,0.0155,0.0153,0.0153,0.0153,0.0153,0.0137,0.0136,0.0135,0,0,0,0,0,0,0,0,0,0,0,0,0,0.0143,0.0141,0.016,0.0159,0.0159,0.0155,0.0155,0.0155,0.0153,0.0153,0.0153,0.0153,0.0137,0.0136,0.0135,0.0129,0,0,0.0133,0.0133,0,0,0,0,0,0,0,0,0.0143,0.0144,0.0159,0.0159,0.0159,0.0155,0.0142,0.0146,0.0153,0.0155,0.0153,0.0153,0.0142,0.0141,0.0139,0.0128,0.0128,0.0133,0.0133,0.0132,0.0132,0,0,0,0,0,0,0,0.0143,0.0144,0.0158,0.0159,0.0159,0.0149,0.015,0.0143,0.0147,0.0155,0.0155,0.0155,0.0142,0.014,0.0139,0.0127,0.0133,0.0132,0.0132,0.0132,0.0122,0.0122,0,0,0,0,0,0,0.0146,0.0144,0.0158,0.0158,0.0152,0.015,0.015,0.0156,0.0148,0.0147,0.0155,0.0155,0.0141,0.014,0.0138,0.015,0.0132,0.0132,0.0131,0.0121,0.0122,0.0122,0,0,0,0,0,0,0.0146,0.0148,0.0158,0.0151,0.0152,0.015,0.0156,0.0156,0.016,0.0148,0.0147,0.016,0.0141,0.0139,0.014,0.0149,0.0131,0.0131,0.0121,0.0121,0.0122,0.0162,0,0,0,0,0,0,0.0145,0.0148,0.0153,0.0151,0.0152,0.0163,0.0156,0.0156,0.016,0.016,0.0152,0.015,0.0141,0.0141,0.0139,0.0148,0.013,0.0121,0.0121,0.0122,0.016,0.0163,0.0166,0,0,0,0,0,0.0145,0.0153,0.0153,0.0155,0.0159,0.0164,0.0164,0.0162,0.016,0.0165,0.016,0.015,0.0141,0.0141,0.0138,0.0147,0.0121,0.0121,0.0122,0.0159,0.0163,0.0166,0,0,0,0,0,0,0.0146,0.0154,0.0154,0.0164,0.0167,0.0164,0.0168,0.0166,0.0166,0.0166,0.0154,0.0153,0.0155,0.0144,0.0143,0.0144,0.0129,0.0129,0.0158,0.0161,0.0164,0.0175,0.0129,0,0,0,0,0,0.0149,0.0159,0.0162,0.017,0.0173,0.0171,0.0172,0.0172,0.0171,0.0171,0.0166,0.0158,0.0154,0.0153,0.0145,0.0147,0.0127,0.0149,0.0152,0.0155,0.0161,0.0136,0.0137,0.0123,0.0123,0.0123,0,0,0.0152,0.0157,0.0162,0.0171,0.0173,0.0184,0.0172,0.0179,0.019,0.0169,0.0181,0.0168,0.0156,0.0159,0.0159,0.0152,0.0148,0.0156,0.0158,0.0163,0.0137,0.0138,0.0139,0.0123,0.0123,0.0123,0,0,0.0164,0.0168,0.0181,0.0187,0.0193,0.0194,0.0198,0.02,0.0203,0.021,0.0197,0.0191,0.0186,0.0179,0.0174,0.0187,0.0163,0.0185,0.0211,0.0186,0.0187,0.0188,0.0163,0.0161,0.0188,0.0188,0.0188,0,0.0166,0.0186,0.0184,0.0199,0.0209,0.0202,0.022,0.0221,0.0223,0.0229,0.022,0.021,0.0196,0.0201,0.0205,0.0195,0.0177,0.0201,0.0191,0.0191,0.0191,0.0165,0.0162,0.019,0.0189,0.0189,0.0189,0,0.019,0.0206,0.0214,0.0234,0.0242,0.0256,0.0261,0.0268,0.0268,0.0269,0.0273,0.025,0.0246,0.0237,0.0227,0.0225,0.021,0.0197,0.0184,0.0195,0.0166,0.0163,0.0192,0.0192,0.0191,0.0191,0,0,0.0198,0.0226,0.023,0.025,0.0264,0.0277,0.0295,0.0312,0.0332,0.0318,0.0335,0.0317,0.0302,0.0295,0.0275,0.0254,0.0234,0.0231,0.0229,0.021,0.018,0.0168,0.0163,0.022,0.0219,0.0219,0.016,0,0.022,0.0258,0.0265,0.0304,0.0326,0.0329,0.0351,0.0364,0.0369,0.0379,0.0352,0.0357,0.0326,0.0326,0.0298,0.0254,0.0227,0.0251,0.0169,0.0167,0.0158,0.016,0.0218,0.0157,0.0156,0.0155,0.0155,0,0.0243,0.0269,0.0311,0.0352,0.0362,0.0383,0.0421,0.0442,0.045,0.0453,0.0444,0.0421,0.0395,0.0361,0.0287,0.0306,0.0248,0.0206,0.0202,0.0176,0.0149,0.0143,0.0148,0.0149,0.0149,0.015,0.015,0,0.0258,0.0301,0.034,0.0353,0.0395,0.0418,0.0442,0.0466,0.0498,0.0501,0.0514,0.0473,0.046,0.0384,0.0296,0.0293,0.0206,0.0187,0.0119,0.0117,0.0128,0.0127,0.0127,0.0127,0.0127,0.0127,0.0127,0,0.028,0.0312,0.0353,0.0376,0.0431,0.0449,0.0508,0.0525,0.0556,0.0594,0.0556,0.0565,0.0466,0.0405,0.0312,0.0209,0.0215,0.0125,0.0102,0.0145,0.0148,0.0125,0.0125,0.0125,0.0125,0.0126,0.0126,0,0.0292,0.0316,0.0367,0.0419,0.0441,0.0484,0.0558,0.06,0.0621,0.0665,0.0668,0.0638,0.0564,0.0451,0.0329,0.024,0.0134,0.0092,0.015,0.0132,0.0055,0.0059,0.0012,0.0011,0.001,0.001,0.0009,0,0.0301,0.0328,0.0399,0.0439,0.0466,0.0533,0.0584,0.0631,0.0678,0.071,0.073,0.0679,0.0637,0.0462,0.0338,0.0156,0.0125,0.0058,0.0051,0.0062,0.0044,0.0049,0.0053,0.0008,0.0008,0.0008,0.0007,0,0.0319,0.0345,0.0388,0.0469,0.0529,0.0602,0.0674,0.0712,0.0763,0.0778,0.0782,0.0695,0.0611,0.0473,0.0332,0.02,0.0095,0.0049,0.005,0.0043,0.0056,0.0041,0.0046,0.0005,0.0005,0.0005,0.0006,0,0.0333,0.0364,0.0423,0.0495,0.0575,0.0649,0.0688,0.0743,0.0789,0.0816,0.0816,0.0724,0.0679,0.0496,0.0367,0.0236,0.0195,0.0133,0.0128,0.0129,0.0176,0.0211,0.019,0,0,0,0,0,0.0345,0.0381,0.0447,0.0525,0.0605,0.0653,0.0741,0.0773,0.0815,0.0823,0.0822,0.0742,0.0568,0.0506,0.0374,0.0337,0.0161,0.0173,0.0084,-0.001,-0.0007,0.0027,0,0,0,0,0,0,0.0353,0.041,0.0441,0.0538,0.0594,0.0685,0.0743,0.0772,0.0783,0.0802,0.0725,0.0685,0.0529,0.0641,0.0364,0.0326,0.0244,0.0099,0.0095,-0.0011,-0.0009,-0.0006,0.0029,0,0,0,0,0]}]]